EW1433 Weather Reports


Display with metric or nautical units.
time (UTC)temp
F
wind
direction
speed
MPH
gust
MPH
rain 1hr
in
rain 24hr
in
rain mn
in
humidity
%
barometer
mb
20180919211647 82 312 3.0 9.0 0.00 0.00 0.00 38 1010.6
20180919211147 82 333 3.0 7.0 0.00 0.00 0.00 41 1010.6
20180919210647 81 351 3.0 7.0 0.00 0.00 0.00 42 1010.6
20180919210148 81 320 2.0 6.0 0.00 0.00 0.00 44 1010.7
20180919205647 81 320 3.0 6.0 0.00 0.00 0.00 42 1010.7
20180919205146 81 326 2.0 7.0 0.00 0.00 0.00 43 1010.8
20180919204647 81 300 4.0 7.0 0.00 0.00 0.00 42 1010.8
20180919204146 80 278 3.0 7.0 0.00 0.00 0.00 44 1010.8
20180919203646 79 282 4.0 7.0 0.00 0.00 0.00 43 1010.9
20180919203146 80 305 3.0 6.0 0.00 0.00 0.00 42 1011.0
20180919202646 79 334 1.0 5.0 0.00 0.00 0.00 42 1011.0
20180919202146 80 298 3.0 6.0 0.00 0.00 0.00 42 1011.0
20180919201647 78 39 2.0 6.0 0.00 0.00 0.00 43 1011.1
20180919201145 78 258 2.0 5.0 0.00 0.00 0.00 46 1011.1
20180919200647 79 309 2.0 4.0 0.00 0.00 0.00 43 1011.2
20180919200146 77 23 2.0 6.0 0.00 0.00 0.00 46 1011.2
20180919195648 77 305 2.0 6.0 0.00 0.00 0.00 46 1011.4
20180919195149 78 271 3.0 3.0 0.00 0.00 0.00 45 1011.4
20180919194647 78 307 2.0 3.0 0.00 0.00 0.00 45 1011.4
20180919194148 77 307 2.0 4.0 0.00 0.00 0.00 47 1011.5
20180919193648 76 320 2.0 4.0 0.00 0.00 0.00 47 1011.6
20180919193146 76 289 2.0 4.0 0.00 0.00 0.00 48 1011.6
20180919192648 76 10 1.0 3.0 0.00 0.00 0.00 48 1011.6
20180919192147 74 62 1.0 3.0 0.00 0.00 0.00 49 1011.7
20180919191646 75 32 2.0 3.0 0.00 0.00 0.00 50 1011.8
20180919191147 73 221 1.0 3.0 0.00 0.00 0.00 51 1011.8
20180919190646 74 306 2.0 3.0 0.00 0.00 0.00 50 1011.9
20180919190148 72 39 2.0 3.0 0.00 0.00 0.00 53 1011.9
20180919185647 73 289 2.0 4.0 0.00 0.00 0.00 51 1012.0
20180919185147 72 323 2.0 4.0 0.00 0.00 0.00 53 1012.0
20180919184647 71 337 1.0 4.0 0.00 0.00 0.00 53 1012.1
20180919184147 71 262 2.0 3.0 0.00 0.00 0.00 54 1012.2
20180919183646 70 312 2.0 3.0 0.00 0.00 0.00 56 1012.3
20180919183146 69 38 1.0 3.0 0.00 0.00 0.00 56 1012.4
20180919182646 67 111 1.0 3.0 0.00 0.00 0.00 58 1012.3
20180919182144 68 230 1.0 3.0 0.00 0.00 0.00 59 1012.4
20180919181645 68 169 2.0 4.0 0.00 0.00 0.00 59 1012.5
20180919181146 69 302 1.0 4.0 0.00 0.00 0.00 58 1012.6
20180919180644 67 350 1.0 3.0 0.00 0.00 0.00 61 1012.6
20180919180145 66 31 1.0 3.0 0.00 0.00 0.00 62 1012.7
20180919175643 66 63 1.0 3.0 0.00 0.00 0.00 61 1012.7
20180919175144 66 323 2.0 3.0 0.00 0.00 0.00 62 1012.7
20180919174645 65 116 1.0 2.0 0.00 0.00 0.00 65 1012.7
20180919174145 65 351 0.0 1.0 0.00 0.00 0.00 64 1012.7
20180919173645 64 283 0.0 0.0 0.00 0.00 0.00 67 1012.7
20180919173143 62 310 0.0 0.0 0.00 0.00 0.00 68 1012.8
20180919172644 62 48 0.0 0.0 0.00 0.00 0.00 68 1012.7
20180919172145 62 283 0.0 0.0 0.00 0.00 0.00 69 1012.8
20180919171643 61 48 0.0 0.0 0.00 0.00 0.00 70 1012.8
20180919171142 62 286 0.0 0.0 0.00 0.00 0.00 71 1012.7
20180919170641 61 295 0.0 0.0 0.00 0.00 0.00 73 1012.6
20180919170141 60 265 0.0 0.0 0.00 0.00 0.00 75 1012.6
20180919165641 60 265 0.0 0.0 0.00 0.00 0.00 74 1012.6
20180919165142 59 324 0.0 0.0 0.00 0.00 0.00 77 1012.5
20180919164640 59 63 0.0 0.0 0.00 0.00 0.00 78 1012.5
20180919164142 58 63 0.0 0.0 0.00 0.00 0.00 79 1012.4
20180919163641 57 45 0.0 0.0 0.00 0.00 0.00 80 1012.4
20180919163140 57 117 0.0 0.0 0.00 0.00 0.00 81 1012.5
20180919162641 56 117 0.0 0.0 0.00 0.00 0.00 83 1012.4
20180919162140 55 125 0.0 0.0 0.00 0.00 0.00 84 1012.5
20180919161640 55 125 0.0 0.0 0.00 0.00 0.00 84 1012.6
20180919161141 55 110 0.0 0.0 0.00 0.00 0.00 85 1012.6
20180919160641 54 78 0.0 0.0 0.00 0.00 0.00 86 1012.6
20180919160140 53 217 0.0 0.0 0.00 0.00 0.00 87 1012.6
20180919155639 53 217 0.0 0.0 0.00 0.00 0.00 88 1012.5
20180919155140 52 217 0.0 0.0 0.00 0.00 0.00 88 1012.6
20180919154640 52 217 0.0 0.0 0.00 0.00 0.00 89 1012.5
20180919154140 52 217 0.0 0.0 0.00 0.00 0.00 89 1012.5
20180919153639 51 217 0.0 0.0 0.00 0.00 0.00 89 1012.6
20180919153139 51 217 0.0 0.0 0.00 0.00 0.00 90 1012.5
20180919152639 51 217 0.0 0.0 0.00 0.00 0.00 91 1012.5
20180919152139 50 217 0.0 0.0 0.00 0.00 0.00 92 1012.5
20180919151639 50 217 0.0 0.0 0.00 0.00 0.00 92 1012.5
20180919151140 49 217 0.0 0.0 0.00 0.00 0.00 92 1012.5
20180919150638 49 217 0.0 0.0 0.00 0.00 0.00 92 1012.3
20180919150138 49 217 0.0 0.0 0.00 0.00 0.00 93 1012.3
20180919145639 49 217 0.0 0.0 0.00 0.00 0.00 93 1012.4
20180919145138 49 217 0.0 0.0 0.00 0.00 0.00 93 1012.4
20180919144638 48 217 0.0 0.0 0.00 0.00 0.00 94 1012.5
20180919144139 48 217 0.0 0.0 0.00 0.00 0.00 94 1012.4
20180919143639 47 217 0.0 0.0 0.00 0.00 0.00 94 1012.3
20180919143136 47 217 0.0 0.0 0.00 0.00 0.00 94 1012.3
20180919142637 47 217 0.0 0.0 0.00 0.00 0.00 94 1012.2
20180919142137 46 217 0.0 0.0 0.00 0.00 0.00 94 1012.2
20180919141637 47 217 0.0 0.0 0.00 0.00 0.00 94 1012.0
20180919141137 47 217 0.0 0.0 0.00 0.00 0.00 94 1012.2
20180919140637 46 217 0.0 0.0 0.00 0.00 0.00 93 1012.1
20180919140137 46 217 0.0 0.0 0.00 0.00 0.00 94 1012.1
20180919135638 47 217 0.0 0.0 0.00 0.00 0.00 94 1012.0
20180919135137 47 217 0.0 0.0 0.00 0.00 0.00 94 1012.0
20180919134637 47 217 0.0 0.0 0.00 0.00 0.00 94 1011.9
20180919134138 47 217 0.0 0.0 0.00 0.00 0.00 94 1011.9
20180919133637 47 217 0.0 0.0 0.00 0.00 0.00 94 1011.9
20180919133137 47 217 0.0 0.0 0.00 0.00 0.00 94 1011.8
20180919132637 47 217 0.0 0.0 0.00 0.00 0.00 94 1011.8
20180919132136 47 217 0.0 0.0 0.00 0.00 0.00 94 1011.7
20180919131637 47 217 0.0 0.0 0.00 0.00 0.00 93 1011.7
20180919131135 47 217 0.0 0.0 0.00 0.00 0.00 93 1011.7
20180919130635 47 217 0.0 0.0 0.00 0.00 0.00 93 1011.6
20180919130135 47 217 0.0 0.0 0.00 0.00 0.00 94 1011.5
20180919125639 47 217 0.0 0.0 0.00 0.00 0.00 94 1011.5
20180919125137 47 217 0.0 0.0 0.00 0.00 0.00 93 1011.5
20180919124637 47 217 0.0 0.0 0.00 0.00 0.00 93 1011.4
20180919124138 48 217 0.0 0.0 0.00 0.00 0.00 94 1011.5
20180919123636 47 217 0.0 0.0 0.00 0.00 0.00 93 1011.5
20180919123138 47 216 0.0 0.0 0.00 0.00 0.00 93 1011.5
20180919122636 47 216 0.0 0.0 0.00 0.00 0.00 93 1011.4
20180919122135 47 216 0.0 0.0 0.00 0.00 0.00 93 1011.5
20180919121639 47 216 0.0 0.0 0.00 0.00 0.00 93 1011.4
20180919121136 47 216 0.0 0.0 0.00 0.00 0.00 92 1011.5
20180919120636 47 216 0.0 0.0 0.00 0.00 0.00 92 1011.4
20180919120137 47 216 0.0 0.0 0.00 0.00 0.00 92 1011.5
20180919115634 47 216 0.0 0.0 0.00 0.00 0.00 92 1011.4
20180919115135 47 216 0.0 0.0 0.00 0.00 0.00 92 1011.5
20180919114633 47 259 0.0 0.0 0.00 0.00 0.00 92 1011.6
20180919114134 47 264 0.0 0.0 0.00 0.00 0.00 92 1011.7
20180919113633 48 264 0.0 0.0 0.00 0.00 0.00 92 1011.8
20180919113133 48 264 0.0 0.0 0.00 0.00 0.00 92 1011.9
20180919112634 48 264 0.0 0.0 0.00 0.00 0.00 92 1012.0
20180919112133 48 264 0.0 0.0 0.00 0.00 0.00 92 1012.0
20180919111633 48 264 0.0 0.0 0.00 0.00 0.00 93 1011.8
20180919111132 48 264 0.0 0.0 0.00 0.00 0.00 93 1011.8
20180919110633 48 264 0.0 0.0 0.00 0.00 0.00 92 1011.7
20180919110135 48 264 0.0 0.0 0.00 0.00 0.00 92 1011.8
20180919105633 48 264 0.0 0.0 0.00 0.00 0.00 93 1011.7
20180919105133 48 264 0.0 0.0 0.00 0.00 0.00 92 1011.7
20180919104633 48 264 0.0 0.0 0.00 0.00 0.00 92 1011.6
20180919104132 48 264 0.0 0.0 0.00 0.00 0.00 92 1011.5
20180919103632 48 264 0.0 0.0 0.00 0.00 0.00 92 1011.5
20180919103132 48 264 0.0 0.0 0.00 0.00 0.00 92 1011.5
20180919102633 49 264 0.0 0.0 0.00 0.00 0.00 92 1011.5
20180919102131 49 264 0.0 0.0 0.00 0.00 0.00 92 1011.5
20180919101631 48 264 0.0 0.0 0.00 0.00 0.00 92 1011.6
20180919101131 48 264 0.0 0.0 0.00 0.00 0.00 92 1011.5
20180919100631 49 264 0.0 0.0 0.00 0.00 0.00 92 1011.5
20180919100131 49 264 0.0 0.0 0.00 0.00 0.00 92 1011.6
20180919095631 49 264 0.0 0.0 0.00 0.00 0.00 92 1011.7
20180919095131 49 264 0.0 0.0 0.00 0.00 0.00 92 1011.7
20180919094631 49 264 0.0 0.0 0.00 0.00 0.00 91 1011.7
20180919094132 49 264 0.0 0.0 0.00 0.00 0.00 91 1011.8
20180919093632 49 264 0.0 0.0 0.00 0.00 0.00 91 1011.8
20180919093133 50 264 0.0 0.0 0.00 0.00 0.00 91 1011.8
20180919092631 50 264 0.0 2.0 0.00 0.00 0.00 91 1011.8
20180919092130 50 264 1.0 3.0 0.00 0.00 0.00 91 1011.7
20180919091630 50 264 1.0 3.0 0.00 0.00 0.00 92 1011.7
20180919091130 50 217 1.0 2.0 0.00 0.00 0.00 92 1011.7
20180919090632 50 216 0.0 1.0 0.00 0.00 0.00 92 1011.7
20180919090132 50 216 0.0 2.0 0.00 0.00 0.00 92 1011.7
20180919085631 50 216 1.0 2.0 0.00 0.00 0.00 92 1011.8
20180919085129 50 212 0.0 0.0 0.00 0.00 0.00 92 1011.8
20180919084629 50 212 0.0 0.0 0.00 0.00 0.00 92 1011.8
20180919084130 50 212 0.0 0.0 0.00 0.00 0.00 92 1011.8
20180919083630 50 212 0.0 0.0 0.00 0.00 0.00 92 1011.8
20180919083129 50 212 0.0 0.0 0.00 0.00 0.00 92 1011.9
20180919082629 50 212 0.0 0.0 0.00 0.00 0.00 92 1011.9
20180919082130 50 212 0.0 0.0 0.00 0.00 0.00 92 1011.9
20180919081629 50 212 0.0 1.0 0.00 0.00 0.00 92 1011.8
20180919081128 50 212 0.0 2.0 0.00 0.00 0.00 92 1011.9
20180919080628 50 212 1.0 2.0 0.00 0.00 0.00 91 1011.9
20180919080129 51 323 0.0 0.0 0.00 0.00 0.00 92 1011.9
20180919075628 51 323 0.0 0.0 0.00 0.00 0.00 91 1011.9
20180919075128 51 323 0.0 0.0 0.00 0.00 0.00 92 1012.1
20180919074628 51 323 0.0 0.0 0.00 0.00 0.00 91 1012.1
20180919074128 51 323 0.0 0.0 0.00 0.00 0.00 91 1012.0
20180919073629 51 323 0.0 0.0 0.00 0.00 0.00 91 1012.0
20180919073127 51 323 0.0 0.0 0.00 0.00 0.00 91 1012.0
20180919072628 52 323 0.0 0.0 0.00 0.00 0.00 91 1011.9
20180919072127 52 323 0.0 0.0 0.00 0.00 0.00 91 1011.9
20180919071627 52 323 0.0 0.0 0.00 0.00 0.00 91 1011.9
20180919071126 51 323 0.0 0.0 0.00 0.00 0.00 90 1012.0
20180919070626 52 323 0.0 0.0 0.00 0.00 0.00 91 1012.0
20180919070127 52 323 0.0 0.0 0.00 0.00 0.00 90 1011.9
20180919065626 52 323 0.0 0.0 0.00 0.00 0.00 90 1011.9
20180919065128 52 323 0.0 0.0 0.00 0.00 0.00 91 1011.9
20180919064627 52 323 0.0 0.0 0.00 0.00 0.00 90 1011.8
20180919064128 52 323 0.0 0.0 0.00 0.00 0.00 90 1011.9
20180919063626 53 323 0.0 0.0 0.00 0.00 0.00 90 1011.9
20180919063127 53 323 0.0 0.0 0.00 0.00 0.00 90 1012.0
20180919062627 53 323 0.0 0.0 0.00 0.00 0.00 90 1012.0
20180919062126 53 323 0.0 0.0 0.00 0.00 0.00 90 1012.1
20180919061627 53 323 0.0 0.0 0.00 0.00 0.00 90 1012.0
20180919061125 53 323 0.0 0.0 0.00 0.00 0.00 89 1012.1
20180919060627 53 323 0.0 0.0 0.00 0.00 0.00 90 1012.0
20180919060126 53 323 0.0 0.0 0.00 0.00 0.00 90 1012.0
20180919055625 53 323 0.0 0.0 0.00 0.00 0.00 90 1012.0
20180919055126 53 323 0.0 0.0 0.00 0.00 0.00 89 1012.0
20180919054625 54 323 0.0 0.0 0.00 0.00 0.00 89 1012.0
20180919054126 54 323 0.0 0.0 0.00 0.00 0.00 89 1012.1
20180919053625 54 323 0.0 0.0 0.00 0.00 0.00 89 1012.2
20180919053126 54 323 0.0 0.0 0.00 0.00 0.00 89 1012.2
20180919052626 54 323 0.0 0.0 0.00 0.00 0.00 89 1012.2
20180919052126 55 323 0.0 0.0 0.00 0.00 0.00 89 1012.2
20180919051626 55 323 0.0 0.0 0.00 0.00 0.00 89 1012.3
20180919051126 55 323 0.0 0.0 0.00 0.00 0.00 89 1012.3
20180919050627 55 323 0.0 1.0 0.00 0.00 0.00 88 1012.4
20180919050127 55 323 0.0 1.0 0.00 0.00 0.00 88 1012.4
20180919045627 55 323 0.0 1.0 0.00 0.00 0.00 88 1012.3
20180919045128 56 323 0.0 1.0 0.00 0.00 0.00 88 1012.4
20180919044628 56 323 0.0 1.0 0.00 0.00 0.00 87 1012.5
20180919044125 56 323 0.0 1.0 0.00 0.00 0.00 87 1012.4
20180919043625 56 323 0.0 0.0 0.00 0.00 0.00 87 1012.4
20180919043124 56 323 0.0 1.0 0.00 0.00 0.00 86 1012.5
20180919042625 57 323 0.0 1.0 0.00 0.00 0.00 86 1012.4
20180919042125 57 323 0.0 0.0 0.00 0.00 0.00 86 1012.4
20180919041624 57 323 0.0 1.0 0.00 0.00 0.00 86 1012.5
20180919041125 57 323 0.0 0.0 0.00 0.00 0.00 85 1012.5
20180919040625 57 323 0.0 0.0 0.00 0.00 0.00 84 1012.6
20180919040124 58 323 0.0 0.0 0.00 0.00 0.00 83 1012.5
20180919035624 59 323 0.0 0.0 0.00 0.00 0.00 83 1012.4
20180919035123 59 323 0.0 1.0 0.00 0.00 0.00 83 1012.3
20180919034623 59 323 0.0 1.0 0.00 0.00 0.00 83 1012.4
20180919034125 59 323 0.0 1.0 0.00 0.00 0.00 83 1012.3
20180919033623 59 323 0.0 1.0 0.00 0.00 0.00 82 1012.2
20180919033123 59 323 0.0 0.0 0.00 0.00 0.00 82 1012.2
20180919032622 60 323 0.0 0.0 0.00 0.00 0.00 81 1012.2
20180919032123 60 323 0.0 1.0 0.00 0.00 0.00 81 1012.1
20180919031622 60 323 0.0 1.0 0.00 0.00 0.00 81 1012.2
20180919031121 60 323 0.0 1.0 0.00 0.00 0.00 81 1012.1
20180919030621 60 10 0.0 0.0 0.00 0.00 0.00 81 1012.0
20180919030122 61 10 0.0 1.0 0.00 0.00 0.00 80 1011.9
20180919025621 61 10 0.0 1.0 0.00 0.00 0.00 79 1012.0
20180919025121 61 10 0.0 1.0 0.00 0.00 0.00 79 1012.0
20180919024620 62 10 0.0 2.0 0.00 0.00 0.00 78 1012.0
20180919024121 62 13 1.0 2.0 0.00 0.00 0.00 77 1011.8
20180919023621 62 317 0.0 2.0 0.00 0.00 0.00 76 1011.9
20180919023121 63 317 0.0 2.0 0.00 0.00 0.00 75 1011.8
20180919022620 63 317 1.0 2.0 0.00 0.00 0.00 75 1011.9
20180919022120 63 317 1.0 2.0 0.00 0.00 0.00 74 1011.9
20180919021620 64 317 0.0 2.0 0.00 0.00 0.00 73 1011.7
20180919021120 64 317 1.0 2.0 0.00 0.00 0.00 72 1011.6
20180919020622 64 262 1.0 2.0 0.00 0.00 0.00 70 1011.6
20180919020119 65 326 1.0 2.0 0.00 0.00 0.00 69 1011.6
20180919015622 65 327 0.0 2.0 0.00 0.00 0.00 68 1011.6
20180919015121 66 327 0.0 2.0 0.00 0.00 0.00 67 1011.6
20180919014621 67 259 1.0 2.0 0.00 0.00 0.00 65 1011.6
20180919014121 67 338 1.0 5.0 0.00 0.00 0.00 64 1011.6
20180919013621 68 286 2.0 5.0 0.00 0.00 0.00 63 1011.6
20180919013119 68 4 1.0 4.0 0.00 0.00 0.00 63 1011.5
20180919012620 69 265 1.0 6.0 0.00 0.00 0.00 62 1011.5
20180919012121 69 295 3.0 6.0 0.00 0.00 0.00 61 1011.4
20180919011621 69 288 2.0 4.0 0.00 0.00 0.00 60 1011.4
20180919011120 70 316 2.0 4.0 0.00 0.00 0.00 59 1011.3
20180919010620 71 321 2.0 4.0 0.00 0.00 0.00 58 1011.3
20180919010120 71 302 2.0 5.0 0.00 0.00 0.00 58 1011.3
20180919005620 72 324 2.0 5.0 0.00 0.00 0.00 57 1011.2
20180919005120 72 330 2.0 4.0 0.00 0.00 0.00 56 1011.3
20180919004619 73 329 2.0 6.0 0.00 0.00 0.00 55 1011.3
20180919004118 74 317 2.0 6.0 0.00 0.00 0.00 54 1011.3
20180919003619 74 302 2.0 4.0 0.00 0.00 0.00 52 1011.3
20180919003118 74 340 2.0 5.0 0.00 0.00 0.00 52 1011.2
20180919002617 74 313 3.0 9.0 0.00 0.00 0.00 50 1011.2
20180919002117 75 326 2.0 4.0 0.00 0.00 0.00 49 1011.2
20180919001617 75 323 3.0 4.0 0.00 0.00 0.00 51 1011.2
20180919001117 76 329 2.0 4.0 0.00 0.00 0.00 47 1011.2
20180919000617 76 357 2.0 5.0 0.00 0.00 0.00 48 1011.3
20180919000118 76 35 2.0 4.0 0.00 0.00 0.00 46 1011.3
20180918235616 76 313 2.0 5.0 0.00 0.00 0.00 47 1011.3
20180918235117 76 279 3.0 5.0 0.00 0.00 0.00 48 1011.3
20180918234616 76 326 2.0 5.0 0.00 0.00 0.00 47 1011.3
20180918234116 76 314 2.0 4.0 0.00 0.00 0.00 48 1011.2
20180918233616 76 305 3.0 4.0 0.00 0.00 0.00 49 1011.3
20180918233116 76 358 2.0 7.0 0.00 0.00 0.00 49 1011.4
20180918232616 76 302 4.0 7.0 0.00 0.00 0.00 49 1011.5
20180918232116 76 276 3.0 6.0 0.00 0.00 0.00 51 1011.4
20180918231616 76 21 3.0 5.0 0.00 0.00 0.00 51 1011.5
20180918231116 76 330 2.0 5.0 0.00 0.00 0.00 52 1011.5
20180918230617 76 306 2.0 4.0 0.00 0.00 0.00 52 1011.5
20180918230117 76 329 3.0 6.0 0.00 0.00 0.00 51 1011.6
20180918225617 76 314 4.0 6.0 0.00 0.00 0.00 50 1011.5
20180918225117 77 319 2.0 6.0 0.00 0.00 0.00 50 1011.6
20180918224616 77 355 3.0 5.0 0.00 0.00 0.00 50 1011.5
20180918224117 76 32 2.0 5.0 0.00 0.00 0.00 49 1011.6
20180918223618 77 305 3.0 5.0 0.00 0.00 0.00 48 1011.6
20180918223118 77 14 3.0 6.0 0.00 0.00 0.00 47 1011.6
20180918222617 77 316 2.0 6.0 0.00 0.00 0.00 47 1011.6
20180918222116 78 320 3.0 6.0 0.00 0.00 0.00 47 1011.6
20180918221618 77 333 2.0 7.0 0.00 0.00 0.00 47 1011.6
20180918221115 77 202 4.0 7.0 0.00 0.00 0.00 47 1011.6
20180918220614 77 0 2.0 10.0 0.00 0.00 0.00 48 1011.6
20180918220114 77 319 3.0 7.0 0.00 0.00 0.00 48 1011.6
20180918215616 77 295 4.0 7.0 0.00 0.00 0.00 48 1011.6
20180918215114 78 329 3.0 9.0 0.00 0.00 0.00 47 1011.6
20180918214614 78 252 2.0 9.0 0.00 0.00 0.00 46 1011.5
20180918214114 78 330 3.0 5.0 0.00 0.00 0.00 46 1011.5
20180918213613 79 331 3.0 7.0 0.00 0.00 0.00 46 1011.5
20180918213114 78 306 3.0 7.0 0.00 0.00 0.00 47 1011.6
20180918212612 78 326 2.0 4.0 0.00 0.00 0.00 45 1011.7
20180918212114 78 34 2.0 4.0 0.00 0.00 0.00 46 1011.7